Flag for United Kingdom Weather past 2 weeks in Norwich, England, United Kingdom

Now
64 °F

Passing clouds.


Feels Like: 64 °F
Forecast: 59 / 73 °F
Wind: 10 mph from North

Location: Norwich Weather Centre

Current Time: Jul 28, 2014 at 6:07:13 PM

Latest Report: Jul 28, 2014 at 5:20 PM


Visibility: N/A

Pressure: 30.01 "Hg

Humidity: 83%

Dew point: 59 °F

Location of NorwichLocation

Historic Weather in Norwich — Graph

°F

Norwich temperature yesterday

Maximum temperature yesterday: 72 °F (at 1:50 PM)
Minimum temperature yesterday: 63 °F (at 1:20 AM)
Average temperature yesterday: 66 °F

Past Weeks' High & Low Weather Summary

 TemperatureHumidityPressure
High81 °F (Jul 18, 5:20 PM)100% (Jul 13, 4:20 PM)30.24 "Hg (Jul 13, 4:20 PM)
Low52 °F (Jul 16, 4:20 AM)47% (Jul 14, 4:20 PM)29.74 "Hg (Jul 13, 4:20 PM)
Average67 °F80%30.02 "Hg
* Reported Jul 13 4:20 PM — Jul 28 4:50 PM, Norwich, Weather by CustomWeather, © 2014

Note: Actual official high and low records may vary slightly from our data, if they occured in-between our weather recording intervals... More about our weather records

Advertising

Norwich weather history for previous 24 hours

 ConditionsComfort  
Time TempWeatherWind HumidityBarometerVisibility
4:50 PM
Jul 28
64 °FPassing clouds.10 mph83%30.01 "HgN/A
4:20 PM64 °FPassing clouds.10 mph83%30.01 "HgN/A
3:50 PM66 °FPassing clouds.9 mph78%29.98 "HgN/A
3:20 PM66 °FPassing clouds.12 mph78%29.98 "HgN/A
2:50 PM66 °FPassing clouds.10 mph78%29.98 "HgN/A
2:20 PM66 °FPassing clouds.10 mph78%30.01 "HgN/A
1:50 PM66 °FPassing clouds.8 mph83%30.01 "HgN/A
1:20 PM64 °FLight rain. Passing clouds.8 mph88%30.01 "HgN/A
12:50 PM64 °FLight rain. Passing clouds.6 mph88%30.01 "HgN/A
12:20 PM63 °FRain. Passing clouds.9 mph94%30.01 "HgN/A
11:50 AM64 °FLight rain. Passing clouds.12 mph83%30.01 "HgN/A
11:20 AM66 °FPassing clouds.12 mph73%30.01 "HgN/A
10:50 AM66 °FPassing clouds.10 mph73%30.01 "HgN/A
10:20 AM64 °FPassing clouds.8 mph78%30.01 "HgN/A
9:50 AM63 °FPassing clouds.6 mph88%30.01 "HgN/A
9:20 AM63 °FPassing clouds.3 mph94%29.98 "HgN/A
8:50 AM63 °FSunny.3 mph88%29.98 "Hg10 mi
8:20 AM61 °FSunny.No wind94%29.98 "Hg10 mi
7:50 AM61 °FSunny.2 mph94%29.98 "Hg10 mi
7:20 AM61 °FSunny.2 mph94%29.98 "Hg10 mi
6:50 AM59 °FSunny.No wind94%30.01 "Hg10 mi
6:20 AM59 °FSunny.No wind94%30.01 "Hg10 mi
5:50 AM59 °FPassing clouds.5 mph94%29.98 "HgN/A
5:20 AM59 °FCool.No wind94%29.98 "Hg5 mi
4:50 AM57 °FCool.3 mph94%29.95 "Hg5 mi
4:20 AM59 °FPassing clouds.2 mph94%29.98 "HgN/A
3:20 AM61 °FPassing clouds.1 mph94%29.98 "HgN/A
2:50 AM61 °FPassing clouds.3 mph88%29.98 "HgN/A
2:20 AM63 °FPassing clouds.1 mph88%29.98 "HgN/A
1:50 AM63 °FPassing clouds.6 mph88%29.98 "HgN/A
1:20 AM61 °FPassing clouds.No wind88%30.01 "Hg5 mi
12:50 AM63 °FPassing clouds.No wind83%30.01 "HgN/A
12:20 AM63 °FPassing clouds.3 mph83%30.01 "HgN/A
11:50 PM
Jul 27
63 °FPassing clouds.5 mph83%30.01 "HgN/A
11:20 PM63 °FMild.5 mph83%30.01 "HgN/A
10:50 PM63 °FMild.5 mph83%30.01 "HgN/A
10:20 PM63 °FMild.8 mph83%30.01 "HgN/A
9:50 PM63 °FMild.6 mph83%30.01 "HgN/A
9:20 PM63 °FSunny.6 mph83%30.01 "Hg10 mi
8:50 PM63 °FSunny.5 mph83%30.01 "Hg10 mi
8:20 PM64 °FPassing clouds.6 mph78%30.01 "HgN/A
7:50 PM66 °FPassing clouds.7 mph73%30.01 "HgN/A
7:20 PM66 °FScattered clouds.7 mph73%30.01 "HgN/A
6:50 PM66 °FScattered clouds.7 mph73%30.01 "HgN/A
6:20 PM66 °FScattered clouds.8 mph78%30.01 "HgN/A
Weather by CustomWeather, © 2014

See weather overviewHow to use our weather pages